Home   Weather   Mudgee   Past weeks

Flag for Australia Past Weather in Mudgee, New South Wales, Australia — Yesterday and Last 2 Weeks

Now
53 °F

Overcast.


Feels Like: 53 °F
Forecast: 53 / 59 °F
Wind: 1 mph from Southeast

Location: Mudgee Aws

Current Time: Aug 31, 2016 at 6:56:03 AM

Latest Report: Aug 31, 2016 at 6:00 AM


Visibility: N/A

Pressure: 30.16 "Hg

Humidity: 98%

Dew Point: 52 °F

Location of MudgeeLocation

Past Weather in Mudgee — Graph

°F

Mudgee Temperature Yesterday

Maximum temperature yesterday: 68 °F (at 2:00 PM)
Minimum temperature yesterday: 37 °F (at 5:00 AM)
Average temperature yesterday: 53 °F

High & Low Weather Summary for the Past Weeks

 TemperatureHumidityPressure
High68 °F (Aug 30, 2:00 PM)100% (Aug 23, 6:00 AM)30.50 "Hg (Aug 23, 6:00 AM)
Low29 °F (Aug 28, 3:00 AM)35% (Aug 26, 2:00 PM)29.74 "Hg (Aug 24, 5:00 PM)
Average48 °F80%30.14 "Hg
* Reported Aug 16 5:00 AM — Aug 31 5:00 AM, Mudgee, Weather by CustomWeather, © 2016

Note: Actual official high and low records may vary slightly from our data, if they occured in-between our weather recording intervals... More about our weather records

Advertising

Mudgee Weather History for the Previous 24 Hours

Scroll right to see more
 ConditionsComfort  
Time TempWeatherWind HumidityBarometerVisibility
5:00 AM
Wed, Aug 31
52 °FCool.No wind98%30.16 "HgN/A
3:00 AM51 °FOvercast.No wind98%30.17 "HgN/A
2:00 AM52 °FCool.3 mph98%30.18 "HgN/A
12:00 AM51 °FOvercast.3 mph98%30.23 "HgN/A
11:00 PM
Tue, Aug 30
52 °FCool.7 mph98%30.24 "HgN/A
9:00 PM56 °FOvercast.6 mph85%30.23 "HgN/A
8:00 PM58 °FCool.6 mph79%30.23 "HgN/A
6:00 PM62 °FOvercast.8 mph69%30.21 "HgN/A
5:00 PM64 °FMild.7 mph66%30.23 "HgN/A
3:00 PM67 °FOvercast.13 mph56%30.24 "HgN/A
2:00 PM68 °FMild.14 mph54%30.25 "HgN/A
12:00 PM65 °FMild.12 mph57%30.30 "HgN/A
11:00 AM63 °FMild.7 mph61%30.34 "HgN/A
9:00 AM51 °FOvercast.3 mph79%30.35 "HgN/A
8:00 AM45 °FCool.2 mph91%30.34 "HgN/A
6:00 AM39 °FOvercast.2 mph97%30.33 "HgN/A
Weather by CustomWeather, © 2016

See weather overviewHow to use our weather pages